Location: *
(37.9500°N, 27.3666°E)
Time: 12:48:50
(UTC+00:00)

FALCON 9 DEB - Pass Details

Date: 24 October 2021
Orbit: 337 x 351 km, 53.0° (Epoch: 02 December)

Event Time Altitude Azimuth Distance (km) Brightness Sun altitude
Rises 15:52:51 0° 195° (SSW) 2,151 7.0 -7.0°
Reaches altitude 10° 15:55:13 10° 176° (S) 1,321 5.7 -7.4°
Maximum altitude 15:57:21 19° 129° (SE) 948 4.5 -7.9°
Enters shadow 15:59:16 11° 86° (E) 1,261 4.8 -8.2°
